• In Czech Republic
  • List of Countries
  • For 7 days
  • Water Temperature
  • Satellite Maps
  • Weather Map
  • Weather Widgets
  • user-avatar
    Login

    Hourly Weather Beverly

    Today, 25 February, Sunday

    Time Temperature Precipitation Wind Pressure Humidity
    00:00 -1°C° 0 mm 5 mps 771 mmHg 85%
    01:00 -1°C° 0 mm 5 mps 771 mmHg 84%
    02:00 -2°C° 0 mm 6 mps 771 mmHg 83%
    03:00 -3°C° 0 mm 6 mps 771 mmHg 82%
    04:00 -3°C° 0 mm 6 mps 771 mmHg 81%
    05:00 -2°C° 0 mm 5 mps 772 mmHg 80%
    06:00 -2°C° 0 mm 4 mps 772 mmHg 83%
    07:00 -2°C° 0 mm 5 mps 772 mmHg 77%
    08:00 -2°C° 0 mm 6 mps 772 mmHg 71%
    09:00 -1°C° 0 mm 6 mps 773 mmHg 65%
    10:00 -1°C° 0 mm 6 mps 773 mmHg 62%
    11:00 +1°C° 0 mm 6 mps 773 mmHg 59%
    12:00 +2°C° 0 mm 6 mps 773 mmHg 56%
    13:00 +2°C° 0 mm 6 mps 773 mmHg 57%
    14:00 +1°C° 0 mm 6 mps 773 mmHg 57%
    15:00 +1°C° 0 mm 6 mps 773 mmHg 57%
    16:00 -1°C° 0 mm 6 mps 773 mmHg 61%
    17:00 -2°C° 0 mm 6 mps 773 mmHg 65%
    18:00 -3°C° 0 mm 6 mps 773 mmHg 68%
    19:00 -3°C° 0 mm 6 mps 774 mmHg 69%
    20:00 -3°C° 0 mm 6 mps 774 mmHg 70%
    21:00 -4°C° 0 mm 5 mps 774 mmHg 71%
    22:00 -3°C° 0 mm 6 mps 774 mmHg 71%
    23:00 -3°C° 0 mm 6 mps 775 mmHg 71%

    Tomorrow, 26 February, Monday

    Time Temperature Precipitation Wind Pressure Humidity
    00:00 -3°C° 0 mm 6 mps 775 mmHg 70%
    01:00 -3°C° 0 mm 6 mps 775 mmHg 70%
    02:00 -3°C° 0 mm 6 mps 775 mmHg 70%
    03:00 -3°C° 0 mm 6 mps 775 mmHg 70%
    04:00 -3°C° 0 mm 6 mps 775 mmHg 69%
    05:00 -3°C° 0 mm 6 mps 775 mmHg 68%
    06:00 -3°C° 0 mm 6 mps 775 mmHg 67%
    07:00 -3°C° 0 mm 6 mps 776 mmHg 64%
    08:00 -2°C° 0 mm 7 mps 776 mmHg 61%
    09:00 -2°C° 0 mm 7 mps 776 mmHg 57%
    10:00 -2°C° 0 mm 7 mps 776 mmHg 56%
    11:00 -1°C° 0 mm 7 mps 776 mmHg 55%
    12:00 -1°C° 0 mm 7 mps 776 mmHg 54%
    13:00 -1°C° 0 mm 7 mps 776 mmHg 54%
    14:00 -1°C° 0 mm 7 mps 775 mmHg 55%
    15:00 -1°C° 0 mm 7 mps 775 mmHg 55%
    16:00 -2°C° 0 mm 6 mps 775 mmHg 59%
    17:00 -3°C° 0 mm 6 mps 775 mmHg 62%
    18:00 -3°C° 0 mm 6 mps 775 mmHg 65%
    19:00 -3°C° 0 mm 6 mps 774 mmHg 66%
    20:00 -2°C° 0 mm 5 mps 774 mmHg 68%
    21:00 -2°C° 0 mm 5 mps 774 mmHg 69%
    22:00 -2°C° 0.2 mm 4 mps 773 mmHg 72%
    23:00 -2°C° 0.2 mm 4 mps 773 mmHg 76%

    Day after tomorrow, 27 February, Tuesday

    Time Temperature Precipitation Wind Pressure Humidity
    00:00 -2°C° 0.2 mm 3 mps 772 mmHg 79%
    01:00 -2°C° 1 mm 4 mps 771 mmHg 82%
    02:00 -2°C° 1 mm 5 mps 771 mmHg 85%
    03:00 -3°C° 1 mm 6 mps 770 mmHg 88%
    04:00 -3°C° 0.2 mm 6 mps 770 mmHg 88%
    05:00 -3°C° 0.2 mm 6 mps 769 mmHg 88%
    06:00 -3°C° 0.2 mm 6 mps 769 mmHg 88%
    07:00 -3°C° 0.2 mm 6 mps 769 mmHg 84%
    08:00 -3°C° 0.2 mm 6 mps 769 mmHg 80%
    09:00 -3°C° 0.2 mm 7 mps 769 mmHg 76%
    10:00 -3°C° 0.2 mm 7 mps 769 mmHg 73%
    11:00 -3°C° 0.2 mm 7 mps 769 mmHg 69%
    12:00 -2°C° 0.2 mm 7 mps 769 mmHg 66%
    13:00 -2°C° 0.2 mm 7 mps 769 mmHg 67%
    14:00 -4°C° 0.2 mm 8 mps 768 mmHg 68%
    15:00 -4°C° 0.2 mm 8 mps 768 mmHg 68%
    16:00 -4°C° 0.3 mm 8 mps 768 mmHg 72%
    17:00 -4°C° 0.3 mm 7 mps 768 mmHg 75%
    18:00 -6°C° 0.3 mm 7 mps 768 mmHg 78%
    19:00 -6°C° 0.2 mm 7 mps 768 mmHg 78%
    20:00 -6°C° 0.2 mm 7 mps 768 mmHg 78%
    21:00 -6°C° 0.2 mm 7 mps 768 mmHg 78%
    22:00 -7°C° 0.2 mm 7 mps 767 mmHg 78%
    23:00 -7°C° 0.2 mm 7 mps 767 mmHg 78%

    28 February, Wednesday

    Time Temperature Precipitation Wind Pressure Humidity
    00:00 -7°C° 0.2 mm 7 mps 767 mmHg 78%
    01:00 -7°C° 0.2 mm 7 mps 767 mmHg 79%
    02:00 -6°C° 0.2 mm 6 mps 766 mmHg 79%
    03:00 -8°C° 0.2 mm 6 mps 766 mmHg 80%
    04:00 -8°C° 0.2 mm 6 mps 765 mmHg 80%
    05:00 -8°C° 0.2 mm 6 mps 765 mmHg 80%
    06:00 -8°C° 0.2 mm 6 mps 765 mmHg 80%
    07:00 -6°C° 0.3 mm 6 mps 765 mmHg 79%
    08:00 -7°C° 0.3 mm 7 mps 765 mmHg 78%
    09:00 -6°C° 0.3 mm 7 mps 765 mmHg 77%
    10:00 -6°C° 0.4 mm 8 mps 766 mmHg 78%
    11:00 -7°C° 0.4 mm 10 mps 766 mmHg 79%
    12:00 -7°C° 0.4 mm 11 mps 766 mmHg 80%
    13:00 -7°C° 0.2 mm 10 mps 766 mmHg 77%
    14:00 -7°C° 0.2 mm 10 mps 766 mmHg 74%
    15:00 -6°C° 0.2 mm 9 mps 766 mmHg 71%
    16:00 -8°C° 0.2 mm 9 mps 766 mmHg 74%
    17:00 -8°C° 0.2 mm 9 mps 766 mmHg 77%
    18:00 -9°C° 0.2 mm 9 mps 766 mmHg 80%
    19:00 -9°C° 0.1 mm 9 mps 765 mmHg 81%
    20:00 -9°C° 0.1 mm 9 mps 765 mmHg 82%
    21:00 -9°C° 0.1 mm 9 mps 765 mmHg 83%
    22:00 -9°C° 0.2 mm 9 mps 765 mmHg 83%
    23:00 -8°C° 0.2 mm 10 mps 765 mmHg 84%

    1 March, Thursday

    Time Temperature Precipitation Wind Pressure Humidity
    00:00 -8°C° 0.2 mm 10 mps 764 mmHg 84%
    01:00 -8°C° 0.1 mm 10 mps 764 mmHg 84%
    02:00 -8°C° 0.1 mm 11 mps 763 mmHg 83%
    03:00 -8°C° 0.1 mm 11 mps 763 mmHg 83%
    04:00 -8°C° 0.1 mm 11 mps 762 mmHg 82%
    05:00 -8°C° 0.1 mm 12 mps 762 mmHg 81%
    06:00 -8°C° 0.1 mm 12 mps 761 mmHg 81%
    07:00 -9°C° 0.1 mm 13 mps 761 mmHg 80%
    08:00 -7°C° 0.1 mm 13 mps 761 mmHg 78%
    09:00 -7°C° 0.1 mm 13 mps 761 mmHg 77%
    10:00 -7°C° 0.1 mm 13 mps 760 mmHg 77%
    11:00 -6°C° 0.1 mm 13 mps 760 mmHg 76%
    12:00 -6°C° 0.1 mm 13 mps 760 mmHg 75%
    13:00 -6°C° 0 mm 13 mps 759 mmHg 76%
    14:00 -6°C° 0 mm 13 mps 759 mmHg 76%
    15:00 -6°C° 0 mm 13 mps 758 mmHg 76%
    16:00 -6°C° 0 mm 13 mps 758 mmHg 77%
    17:00 -6°C° 0 mm 13 mps 757 mmHg 78%
    18:00 -6°C° 0 mm 12 mps 757 mmHg 79%
    19:00 -6°C° 0.1 mm 12 mps 757 mmHg 80%
    20:00 -6°C° 0.1 mm 12 mps 757 mmHg 80%
    21:00 -6°C° 0.1 mm 12 mps 756 mmHg 80%
    22:00 -6°C° 0 mm 12 mps 756 mmHg 80%
    23:00 -6°C° 0 mm 12 mps 755 mmHg 80%

    2 March, Friday

    Time Temperature Precipitation Wind Pressure Humidity
    00:00 -6°C° 0 mm 12 mps 755 mmHg 81%
    01:00 -6°C° 0 mm 12 mps 754 mmHg 81%
    02:00 -7°C° 0 mm 12 mps 754 mmHg 81%
    03:00 -7°C° 0 mm 13 mps 753 mmHg 81%
    04:00 -7°C° 0.1 mm 13 mps 752 mmHg 83%
    05:00 -7°C° 0.1 mm 13 mps 752 mmHg 84%
    06:00 -7°C° 0.1 mm 13 mps 751 mmHg 86%
    07:00 -6°C° 0.3 mm 13 mps 751 mmHg 86%
    08:00 -6°C° 0.3 mm 13 mps 750 mmHg 85%
    09:00 -6°C° 0.3 mm 13 mps 750 mmHg 85%
    10:00 -6°C° 0.5 mm 13 mps 749 mmHg 87%
    11:00 -6°C° 0.5 mm 13 mps 749 mmHg 88%
    12:00 -6°C° 0.5 mm 12 mps 749 mmHg 90%
    13:00 -6°C° 1 mm 12 mps 748 mmHg 91%
    14:00 -6°C° 1 mm 12 mps 748 mmHg 92%
    15:00 -6°C° 1 mm 11 mps 747 mmHg 93%
    16:00 -4°C° 0.9 mm 11 mps 747 mmHg 93%
    17:00 -4°C° 0.9 mm 11 mps 746 mmHg 93%
    18:00 -4°C° 0.9 mm 10 mps 746 mmHg 93%
    19:00 -4°C° 0.6 mm 10 mps 746 mmHg 94%
    20:00 -4°C° 0.6 mm 9 mps 745 mmHg 94%
    21:00 -3°C° 0.6 mm 9 mps 745 mmHg 95%
    22:00 -2°C° 0.5 mm 8 mps 745 mmHg 95%
    23:00 -2°C° 0.5 mm 8 mps 744 mmHg 96%
    Show more